Location: ??????????
(42.1626°N, 44.1160°E)
Time: 14:20:33
(UTC+00:00)

Cosmos 1666 Rocket - Pass Details

Date: 03 March 2021
Orbit: 605 x 632 km, 82.5° (Epoch: 20 April)

Event Time Altitude Azimuth Distance (km) Brightness Sun altitude
Rises 15:41:54 0° 196° (SSW) 2,858 7.2 -9.3°
Reaches altitude 10° 15:44:08 10° 200° (SSW) 1,955 6.4 -9.7°
Maximum altitude 15:48:24 59° 280° (W) 701 4.2 -10.5°
Drops below altitude 10° 15:52:41 10° 1° (N) 1,962 6.2 -11.3°
Sets 15:54:56 0° 5° (N) 2,870 7.0 -11.7°
